Satellite: AUBIESAT Catalog number: 37854 Epoch time: 12053.93012434 Element set: 106 Inclination: 101.7166 deg RA of node: 041.8386 deg Eccentricity: 0.0251037 Arg of perigee: 318.6343 deg Mean anomaly: 039.6078 deg Mean motion: 14.79248141 rev/day Decay rate: 6.913e-05 rev/day^2 Epoch rev: 1734 Checksum: 285
Satellite: HRBE Catalog number: 37855 Epoch time: 12053.93434127 Element set: 0119 Inclination: 101.7181 deg RA of node: 041.8324 deg Eccentricity: 0.0251980 Arg of perigee: 318.7611 deg Mean anomaly: 039.4793 deg Mean motion: 14.79149398 rev/day Decay rate: 6.512e-05 rev/day^2 Epoch rev: 01734 Checksum: 303
Satellite: RS-39 Catalog number: 38051 Epoch time: 12054.83254137 Element set: 90 Inclination: 051.6525 deg RA of node: 343.9472 deg Eccentricity: 0.0011711 Arg of perigee: 352.7574 deg Mean anomaly: 035.1393 deg Mean motion: 15.22409275 rev/day Decay rate: 9.083e-05 rev/day^2 Epoch rev: 454 Checksum: 286
/EX